#timestamp,LO_Frequency,Hit,StdDev 
1594144815.1,286047000.2,N
1594144835.9,286047002.3,N
1594144855.7,286047002.4,N
1594144875.5,286047000.1,N
1594144895.4,286047001.9,N
1594144915.2,286046999.8,N
1594144935.1,286046999.7,N
1594144936.0,286046999.7,N
1594144955.8,286046999.8,N
1594144975.6,286047000.1,N
1594144995.5,286047001.0,N
1594145015.3,286047001.2,N
1594145035.1,286047001.2,N
1594145055.9,286047000.8,N
1594145075.7,286046999.8,N
1594145095.6,286047000.2,N
1594145115.4,286047002.6,N
1594145135.2,286047002.7,N
1594145155.1,286047002.5,N
1594145156.0,286047002.5,N
1594145175.8,286046999.8,N
1594145195.7,286047002.1,N
1594145215.5,286047002.6,N
1594145235.3,286047003.3,N
1594145255.2,286047004.3,Y
1594145275.0,286047002.8,P
1594145275.9,286047002.8,N
1594145295.8,286047000.7,N
1594145315.6,286047000.2,N
1594145335.4,286046999.7,N
1594145355.3,286047000.1,N
1594145375.1,286047000.4,N
1594145395.8,286047000.2,N
1594145415.7,286047000.4,N
1594145435.5,286047000.3,N
1594145455.4,286047000.6,N
1594145475.2,286046999.9,N
1594145495.0,286047002.2,N
1594145495.9,286047002.2,N
1594145515.8,286047001.9,N
1594145535.6,286047002.6,N
1594145555.5,286047000.1,N
1594145575.3,286047002.6,N
1594145595.1,286046999.9,N
1594145615.9,286047000.5,N
1594145635.7,286046998.2,N
1594145655.5,286046998.6,N
1594145675.4,286046998.1,N
1594145695.2,286046998.4,N
1594145715.1,286046999.3,N
1594145716.0,286046999.3,N
1594145735.8,286046999.5,N
1594145755.6,286046998.6,N
1594145775.5,286046998.1,N
1594145795.3,286046998.7,N
1594145815.2,286047001.1,N
1594145835.9,286047000.8,N
1594145855.7,286047001.1,N
1594145875.6,286047000.5,N
1594145895.4,286047000.7,N
1594145915.2,286047000.8,N
1594145935.1,286047000.3,N
1594145936.0,286047000.3,N
1594145955.8,286046999.8,N
1594145975.7,286047002.2,N
1594145995.5,286046999.7,N
1594146015.3,286047002.1,N
1594146035.2,286046999.7,N
1594146055.0,286046999.8,N
1594146055.9,286046999.8,N
1594146075.8,286047000.2,N
1594146095.6,286047000.4,N
1594146115.4,286047002.3,N
1594146135.3,286047001.9,N
1594146155.1,286047001.9,N
1594146175.8,286047002.1,N
1594146195.7,286047003.7,N
1594146215.5,286047001.6,N
1594146235.4,286047002.1,N
1594146255.2,286047002.1,N
1594146275.0,286047001.5,N
1594146275.9,286047001.5,N
1594146295.8,286046999.9,N
1594146315.6,286046999.7,N
1594146335.5,286047000.1,N
1594146355.3,286047000.9,N
1594146375.1,286047000.5,N
1594146395.9,286047000.4,N
1594146415.7,286047000.8,N
1594146435.5,286047001.1,N
1594146455.4,286046998.7,N
1594146475.2,286046999.3,N
1594146495.1,286046999.1,N
1594146496.0,286046999.1,N
1594146515.8,286046998.7,N
1594146535.6,286046999.4,N
1594146555.5,286046999.2,N
1594146575.3,286046998.8,N
1594146595.2,286046998.3,N
1594146615.9,286046996.8,N
1594146635.7,286046997.3,N
1594146655.6,286046995.3,N
1594146675.4,286046994.9,N
1594146695.3,286046995.0,N
1594146715.1,286046995.6,N
1594146716.0,286046995.6,N
1594146735.8,286046995.5,N
1594146755.7,286046995.4,N
1594146775.5,286046997.6,N
1594146795.3,286046999.5,N
1594146815.2,286046996.9,N
1594146835.0,286046998.0,N
1594146835.9,286046998.0,N
1594146855.8,286046997.8,N
1594146875.6,286046995.0,N
1594146895.4,286046995.3,N
1594146915.3,286046995.3,N
1594146935.1,286046995.0,N
1594146955.9,286046994.9,N
1594146975.7,286046997.7,N
1594146995.5,286046997.0,N
1594147015.4,286046996.5,N
1594147035.2,286046998.4,N
1594147055.1,286046999.4,N
1594147056.0,286046999.4,N
1594147075.8,286046999.1,N
1594147095.6,286046996.9,N
1594147115.5,286046997.4,N
1594147135.3,286046997.3,N
1594147155.1,286046996.9,N
1594147175.9,286046996.5,N
1594147195.7,286046998.5,N
1594147215.6,286046997.7,N
1594147235.4,286046995.5,Y
1594147255.2,286047001.0,P
1594147275.1,286047000.4,N
1594147276.0,286047000.4,N
1594147295.8,286047000.7,N
1594147315.7,286047000.9,N
1594147335.5,286047002.2,N
1594147355.3,286047001.7,N
1594147375.2,286047001.6,N
1594147395.0,286047001.3,N
1594147395.9,286047001.3,N
1594147415.8,286047002.5,N
1594147435.6,286047001.4,N
1594147455.4,286047003.9,N
1594147475.3,286047003.9,N
1594147495.1,286047003.9,N
1594147515.8,286047003.1,N
1594147535.7,286047004.4,N
1594147555.5,286047004.3,N
1594147575.4,286047003.7,N
1594147595.2,286047004.2,N
1594147615.0,286047005.8,Y
1594147615.9,286047005.8,P
1594147635.8,286047002.4,N
1594147655.6,286047000.1,N
1594147675.4,286047000.5,N
1594147695.3,286047000.6,N
1594147715.1,286047000.2,N
1594147735.9,286046999.7,N
1594147755.7,286047002.4,N
1594147775.6,286047002.7,N
1594147795.4,286047002.5,N
1594147815.2,286047003.5,N
1594147835.1,286047003.5,N
1594147836.0,286047003.5,N
1594147855.8,286047004.0,N
1594147875.6,286047001.3,N
1594147895.5,286047004.4,N
1594147915.3,286047002.8,N
1594147935.2,286047000.2,N
1594147955.9,286047002.0,N
1594147975.7,286047002.8,N
1594147995.6,286046999.7,N
1594148015.4,286047000.3,N
1594148035.3,286047002.3,N
1594148055.1,286047002.6,N
1594148056.0,286047002.6,N
1594148075.8,286047001.5,N
1594148095.7,286047004.1,N
1594148115.5,286047004.1,N
1594148135.4,286047003.5,N
1594148155.2,286047003.8,N
1594148175.0,286047004.4,N
1594148175.9,286047004.4,N
1594148195.8,286047004.4,N
1594148215.6,286047004.0,N
1594148235.5,286047004.0,N
1594148255.3,286047005.9,Y
1594148275.1,286046999.8,P
1594148295.9,286047000.4,N
1594148315.7,286047000.8,N
1594148335.6,286047001.0,N
1594148355.4,286046999.9,N
1594148375.2,286046999.8,N
1594148395.1,286047000.1,N
1594148396.0,286047000.1,N
